This is the latest recevied weather packets stored in our database for station/object WX1NWA. If no packets are shown the sender has not sent any weather packets the latest 1 day(s).
| Time | Temp. | Humidity | Pressure | Rain* | Wind** | Luminosity | Snow |
|---|---|---|---|---|---|---|---|
| 1778096991 | 12.78° C | 76% | 1018.7 hPa | 0 mm | - | 304 W/m² | - |
| 1778094262 | 12.22° C | 76% | 1019.2 hPa | 0 mm | - | 698 W/m² | - |
| 1778093959 | 11.11° C | 78% | 1019.1 hPa | 0 mm | - | 727 W/m² | - |
| 1778093050 | 11.67° C | 78% | 1018.6 hPa | 0 mm | - | 516 W/m² | - |
| 1778092140 | 11.67° C | 81% | 1018.7 hPa | 0 mm | - | 209 W/m² | - |
| 1778091837 | 11.67° C | 78% | 1018.5 hPa | 0 mm | - | 337 W/m² | - |
| 1778091534 | 11.67° C | 76% | 1018.6 hPa | 0 mm | - | 815 W/m² | - |
| 1778091232 | 11.67° C | 80% | 1018.6 hPa | 0 mm | - | 705 W/m² | - |
| 1778090929 | 11.11° C | 81% | 1018.7 hPa | 0 mm | - | 507 W/m² | - |
| 1778090625 | 11.11° C | 82% | 1018.5 hPa | 0 mm | - | 462 W/m² | - |
| 1778090018 | 10° C | 83% | 1019.3 hPa | 0 mm | - | 363 W/m² | - |
| 1778089413 | 10.56° C | 83% | 1019.3 hPa | 0 mm | - | 515 W/m² | - |
| 1778088504 | 9.44° C | 86% | 1019.4 hPa | 0 mm | - | 317 W/m² | - |
| 1778087898 | 8.89° C | 88% | 1019.2 hPa | 0 mm | - | 204 W/m² | - |
| 1778087595 | 8.89° C | 89% | 1019 hPa | 0 mm | - | 221 W/m² | - |
| 1778087293 | 8.89° C | 88% | 1019.4 hPa | 0 mm | - | 207 W/m² | - |
| 1778086688 | 8.89° C | 90% | 1019.2 hPa | 0 mm | - | 232 W/m² | - |
| 1778085170 | 8.33° C | 99% | 1019.3 hPa | 0 mm | - | 205 W/m² | - |
| 1778080095 | 5.56° C | 99% | 1018.7 hPa | 0 mm | - | 134 W/m² | - |
| 1778078883 | 5.56° C | 99% | 1018.3 hPa | 0 mm | - | 184 W/m² | - |
| 1778078278 | 6.11° C | 99% | 1018.6 hPa | 0 mm | - | 148 W/m² | - |
| 1778076464 | 5.56° C | 99% | 1018.3 hPa | 0 mm | - | 104 W/m² | - |
| 1778075251 | 5° C | 99% | 1018.5 hPa | 0 mm | - | 95 W/m² | - |
| 1778074645 | 5° C | 99% | 1018.3 hPa | 0 mm | - | 70 W/m² | - |
| 1778072523 | 5° C | 99% | 1017.8 hPa | 0 mm | - | 53 W/m² | - |
* Rain latest hour (hover to see other rain measurements)
** Current wind speed in m/s (hover to see current wind gust speed)